User: anonymous   Login
Location: Stigler
(35.2540°N, 95.1230°W)
Time: 04:04:09
(UTC-05:00)
Language:

Cosmos 1805 - Orbit

View from above orbital plane
View from above orbital plane
View from above satellite
View from above satellite

Ground track
Ground track

The orbit data is extracted from the following two-line orbital elements,

1 17191U 86097A   16179.92996632 +.00000088 +00000-0 +34038-5 0  9998
2 17191 082.4737 018.2333 0004111 198.6155 161.4925 15.11225881609843
Epoch (UTC): 27 June 2016 22:19:09
Eccentricity: 0.0004111
inclination: 82.4737°
perigee height: 529 km
apogee height: 535 km
right ascension of ascending node: 18.2333°
argument of perigee: 198.6155°
revolutions per day: 15.11225881
mean anomaly at epoch: 161.4925°
orbit number at epoch: 60984

The dashed part of the orbit path shows where the satellite is in the earth's shadow,  

DLR